Regional Weather Roundup
Issued by NWS Charleston, SC

Current Version | Previous Version | Graphics & Text | Print | Product List | Glossary On
Versions: 1 2 3 4 5 6 7 8 9 10 11 12 13 14 15 16 17 18 19 20 21 22 23 24 25 26 27 28 29 30 31 32 33 34 35 36 37 38 39 40 41 42 43 44 45 46 47 48 49 50
000
ASUS42 KCHS 252312
RWRCHS

REGIONAL WEATHER ROUNDUP
NATIONAL WEATHER SERVICE CHARLESTON SC
700 PM EDT SAT APR 25 2015

NOTE: "FAIR" INDICATES FEW OR NO CLOUDS BELOW 12,000 FEET WITH NO
SIGNIFICANT WEATHER AND/OR OBSTRUCTIONS TO VISIBILITY.

NOT ALL STATIONS ARE QUALITY CONTROLLED BY THE NATIONAL
WEATHER SERVICE. USE DATA WITH CAUTION...ESPECIALLY
DEWPOINT OBSERVATIONS.

SCZ027-030-031-034>040-042>050-260000-
...SOUTHEAST SOUTH CAROLINA...

CITY           SKY/WX    TMP DP  RH WIND       PRES   REMARKS
N CHARLESTON   MOSUNNY   76  68  76 SW10      29.67F
WATERFRONT PRK   N/A     72 N/A N/A SW12G17     N/A
MOUNT PLEASANT FAIR      73  70  88 MISG      29.66F
PINOPOLIS      NOT AVBL
MONCKS CORNER  MOCLDY    77  68  73 SW6       29.65F
SUMMERVILLE    CLOUDY    75  70  83 S6        29.67F
BEAUFORT MCAS  MOSUNNY   77  69  76 SW7       29.67F
BEAUFORT ARPT  MOCLDY    75  72  88 CALM      29.67F
HILTON HEAD IS MOSUNNY   75  72  88 CALM      29.70F
WALTERBORO     PTCLDY    75  68  78 SW7       29.67F
ALLENDALE      FAIR      77  70  78 SW3       29.66F

...SOUTHERN MIDLANDS AND PEE DEE...

CITY           SKY/WX    TMP DP  RH WIND       PRES   REMARKS
GEORGETOWN     NOT AVBL
KINGSTREE      NOT AVBL
ORANGEBURG     MOSUNNY   77  66  68 SW8       29.65F
BARNWELL       FAIR      79  70  73 SW6       29.67S
AIKEN          MOCLDY    72  64  78 CALM      29.68F
MANNING        MOCLDY    73  45  35 SW6       29.63F
COLUMBIA       MOSUNNY   74  64  71 SW6       29.62F
SUMTER         PTSUNNY   73  66  78 SW9       29.61F
FLORENCE       CLOUDY    70  64  81 W6        29.62F
MYRTLE BEACH   PTSUNNY   70  64  83 S12       29.66F
N MYRTLE BEACH CLOUDY    69  65  86 SW17      29.64F

$$

GAZ063-065-086>088-099>101-113>116-118-119-134>141-150-260000-
...SOUTHEAST GEORGIA...

CITY           SKY/WX    TMP DP  RH WIND       PRES   REMARKS
SAVANNAH ARPT  PTSUNNY   80  70  71 SW3       29.67F
HUNTER AAF     MOSUNNY   81  73  75 S2        29.64F
FORT STEWART   PTSUNNY   79  71  77 SW5       29.64F
STATESBORO       N/A     78  71  78 CALM      29.66F
SYLVANIA       PTCLDY    77  71  84 CALM      29.68F
CLAXTON        FAIR      79  73  83 CALM      29.64F

...CSRA...CENTRAL AND FAR SOUTHEAST GEORGIA...

CITY           SKY/WX    TMP DP  RH WIND       PRES   REMARKS
THOMSON        MOSUNNY   78  72  81 CALM      29.69S
AUGUSTA-BUSH   MOSUNNY   77  68  73 SW8       29.65F
AUGUSTA-DANIEL CLOUDY    77  66  68 SW7       29.66F
SWAINSBORO     NOT AVBL
VIDALIA        HVY RAIN  81  72  74 W3        29.68R
EASTMAN        TSTM      80  73  77 SW3       29.69R
HAZLEHURST     FAIR      82  72  72 CALM      29.65S
ALMA           PTSUNNY   80  71  74 S8        29.67F
WAYCROSS       CLOUDY    82  74  75 SW12      29.70S
JESUP          FAIR      84  73  70 SW10G17   29.68F HX  91
BAXLEY         FAIR      82  72  69 SW13      29.66F
BRUNSWICK      MOSUNNY   81  70  69 SW13      29.71F
SAINT SIMONS   MOSUNNY   78  70  76 SW10      29.71F

$$

SCZ027-028-034-036>038-045-046-048>050-GAZ119-141-260000-
...LAKE AND SUPPLEMENTAL COASTAL OBSERVATIONS...

STATION/POSITION TIME  TEMP    WIND        PRES    WAVE   SWELL
                       AIR SEA DIR/SP/G            HT/PER HT/PER/DIR
                 (UTC) (F)     (DEG/KT/KT) (MB)    (FT/S) (FT/S/D)
UPR LAKE MARION  NOT AVBL
WINYAH BAY       NOT AVBL
LAKE MURRAY      2200   71     260/ 10/ 12 1004.1F
ACE BASIN NERRS  NOT AVBL
FORT PULASKI     2200   76 71  150/  4/  6 1006.2F
SAPELO ISLAND    2200   80     230/ 17     1006.0S

$$

ANZ835-935-AMZ111-154-330-350-352-354-370-450-454-472-260000-
...C-MAN AND BUOY OBSERVATIONS...

STATION/POSITION TIME  TEMP    WIND        PRES    WAVE   SWELL
                       AIR SEA DIR/SP/G            HT/PER HT/PER/DIR
                 (UTC) (F)     (DEG/KT/KT) (MB)    (FT/S) (FT/S/D)
BUOY 41004       2250   73 71  220/ 19/ 21 1004.6F   5/ 5   2/10
BUOY 41008       2250   71 69  190/  8/ 10 1006.2F   3/ 5   3/150/ 5
FOLLY BEACH CMAN 2300   70     220/ 10/ 14 1005.0F
CAPERS NEARSHORE NOT AVBL
FRIPP NEARSHORE  2200   71     220/ 12/ 14 1005.8F


STATION/POSITION TIME  TEMP    WIND        PRES    WAVE   SWELL
                       AIR SEA DIR/SP/G            HT/PER HT/PER/DIR
                 (UTC) (F)     (DEG/KT/KT) (MB)    (FT/S) (FT/S/D)
5E ST. MARYS GA  2221      70                N/A     2/13   2/100/13
FRYING PAN BUOY  2250   73 71  200/ 21/ 25 1005.0F   6/ 6   2/100/ 9
BUOY 41025       2250   63 70  280/  6/ 10 1006.5F   3/ 9   3/ 70/ 9
CAPE LOOKOUT NC  2300   61     120/  8/  9 1005.2F
BUOY 41002       2250   70 71  200/ 19/ 23 1008.9F   5/ 5   2/ 30/ 8
BUOY 41010       2220   79 80  200/ 16/ 19 1010.6F
ST AUGUSTINE FL  2300   83 70  250/  7/ 11 1008.9F


$$



USA.gov is the U.S. government's official web portal to all federal, state and local government web resources and services.